Voltar ao catálogo

FREGAT R/B

AtivoMEO
NORAD 41551·ROCKET BODY·🇷🇺 Russia

Lançado May 24, 2016 de Guiana Space Centre

Loading…

Próximas Passagens (próximas 24 horas)

TLE

AtualizadoSource: Space-Track

Época: Sep 11, 2026, 14:58 UTC

1 41551U 16030C   26254.62400565  .00000000  00000-0  00000+0 0  9992
2 41551  54.9507 222.7522 0022946 240.9782 118.7379  1.67596794 63071

Acompanhe FREGAT R/B em tempo real com AllMySat

Download on the App Store